Time,TemperatureF,DewpointF,PressureIn,WindDirection,WindDirectionDegrees,WindSpeedMPH,WindSpeedGustMPH,Humidity,HourlyPrecipIn,Conditions,Clouds,dailyrainin,SoftwareType,DateUTC
2013-02-07 00:02:00,41.0,-99.9,-100.00,SE,143,4.0,-999.0,-999,0.00,,,0.00,,2013-02-07 06:02:00,
2013-02-07 00:11:00,41.0,-99.9,-100.00,SE,143,4.0,-999.0,-999,0.00,,,0.00,,2013-02-07 06:11:00,
2013-02-07 00:22:00,41.0,-99.9,-100.00,SE,143,4.0,-999.0,-999,0.00,,,0.00,,2013-02-07 06:22:00,
2013-02-07 00:32:00,42.0,-99.9,-100.00,SE,130,2.0,-999.0,-999,0.00,,,0.00,,2013-02-07 06:32:00,
2013-02-07 00:43:00,42.0,-99.9,-100.00,SE,130,2.0,-999.0,-999,0.00,,,0.00,,2013-02-07 06:43:00,
2013-02-07 00:53:00,42.0,-99.9,-100.00,SE,130,2.0,-999.0,-999,0.00,,,0.00,,2013-02-07 06:53:00,
2013-02-07 01:02:00,41.0,-99.9,-100.00,NE,34,1.0,-999.0,-999,0.00,,,0.00,,2013-02-07 07:02:00,
2013-02-07 01:12:00,41.0,-99.9,-100.00,NE,34,1.0,-999.0,-999,0.00,,,0.00,,2013-02-07 07:12:00,
2013-02-07 01:22:00,41.0,-99.9,-100.00,NE,34,1.0,-999.0,-999,0.00,,,0.00,,2013-02-07 07:22:00,
2013-02-07 01:32:00,41.0,-99.9,-100.00,SE,132,4.0,-999.0,-999,0.00,,,0.00,,2013-02-07 07:32:00,
2013-02-07 01:42:00,41.0,-99.9,-100.00,SE,132,4.0,-999.0,-999,0.00,,,0.00,,2013-02-07 07:42:00,
2013-02-07 01:53:00,41.0,-99.9,-100.00,SE,132,4.0,-999.0,-999,0.00,,,0.00,,2013-02-07 07:53:00,
2013-02-07 02:02:00,40.0,-99.9,-100.00,NW,318,3.0,-999.0,-999,0.00,,,0.00,,2013-02-07 08:02:00,
2013-02-07 02:11:00,40.0,-99.9,-100.00,NW,318,3.0,-999.0,-999,0.00,,,0.00,,2013-02-07 08:11:00,
2013-02-07 02:22:00,40.0,-99.9,-100.00,NW,318,3.0,-999.0,-999,0.00,,,0.00,,2013-02-07 08:22:00,
2013-02-07 02:32:00,40.0,-99.9,-100.00,NW,311,4.0,-999.0,-999,0.00,,,0.00,,2013-02-07 08:32:00,
2013-02-07 02:42:00,40.0,-99.9,-100.00,NW,311,4.0,-999.0,-999,0.00,,,0.00,,2013-02-07 08:42:00,
2013-02-07 02:52:00,40.0,-99.9,-100.00,NW,311,4.0,-999.0,-999,0.00,,,0.00,,2013-02-07 08:52:00,
2013-02-07 03:02:00,40.0,-99.9,-100.00,NNW,328,3.0,-999.0,-999,0.00,,,-99.99,,2013-02-07 09:02:00,
2013-02-07 03:12:00,40.0,-99.9,-100.00,NNW,328,3.0,-999.0,-999,0.00,,,-99.99,,2013-02-07 09:12:00,
2013-02-07 03:22:00,40.0,-99.9,-100.00,NNW,328,3.0,-999.0,-999,0.00,,,-99.99,,2013-02-07 09:22:00,
2013-02-07 03:32:00,40.0,-99.9,-100.00,SSE,153,5.0,-999.0,-999,0.00,,,0.00,,2013-02-07 09:32:00,
2013-02-07 03:42:00,40.0,-99.9,-100.00,SSE,153,5.0,-999.0,-999,0.00,,,0.00,,2013-02-07 09:42:00,
2013-02-07 03:52:00,40.0,-99.9,-100.00,SSE,153,5.0,-999.0,-999,0.00,,,0.00,,2013-02-07 09:52:00,
2013-02-07 04:02:00,40.0,-99.9,-100.00,SSE,165,5.0,-999.0,-999,0.00,,,0.00,,2013-02-07 10:02:00,
2013-02-07 04:11:00,40.0,-99.9,-100.00,SSE,165,5.0,-999.0,-999,0.00,,,0.00,,2013-02-07 10:11:00,
2013-02-07 04:22:00,40.0,-99.9,-100.00,SSE,165,5.0,-999.0,-999,0.00,,,0.00,,2013-02-07 10:22:00,
2013-02-07 04:32:00,40.0,-99.9,-100.00,SE,145,8.0,-999.0,-999,0.00,,,0.00,,2013-02-07 10:32:00,
2013-02-07 04:42:00,40.0,-99.9,-100.00,SE,145,8.0,-999.0,-999,0.00,,,0.00,,2013-02-07 10:42:00,
2013-02-07 04:52:00,40.0,-99.9,-100.00,SE,145,8.0,-999.0,-999,0.00,,,0.00,,2013-02-07 10:52:00,
2013-02-07 05:02:00,40.0,-99.9,-100.00,SE,145,6.0,-999.0,-999,0.00,,,0.00,,2013-02-07 11:02:00,
2013-02-07 05:12:00,40.0,-99.9,-100.00,SE,145,6.0,-999.0,-999,0.00,,,0.00,,2013-02-07 11:12:00,
2013-02-07 05:23:00,40.0,-99.9,-100.00,SE,145,6.0,-999.0,-999,0.00,,,0.00,,2013-02-07 11:23:00,
2013-02-07 05:32:00,40.0,-99.9,-100.00,SSE,162,2.0,-999.0,-999,0.02,,,0.02,,2013-02-07 11:32:00,
2013-02-07 05:44:00,40.0,-99.9,-100.00,SSE,162,2.0,-999.0,-999,0.02,,,0.02,,2013-02-07 11:44:00,
2013-02-07 05:53:00,40.0,-99.9,-100.00,SSE,162,2.0,-999.0,-999,0.02,,,0.02,,2013-02-07 11:53:00,
2013-02-07 06:02:00,40.0,-99.9,-100.00,SSE,164,6.0,-999.0,-999,0.02,,,0.02,,2013-02-07 12:02:00,
2013-02-07 06:12:00,40.0,-99.9,-100.00,SSE,164,6.0,-999.0,-999,0.02,,,0.02,,2013-02-07 12:12:00,
2013-02-07 06:22:00,40.0,-99.9,-100.00,SSE,164,6.0,-999.0,-999,0.02,,,0.02,,2013-02-07 12:22:00,
2013-02-07 06:33:00,40.0,-99.9,-100.00,SSE,168,5.0,-999.0,-999,0.00,,,0.02,,2013-02-07 12:33:00,
2013-02-07 06:42:00,40.0,-99.9,-100.00,SSE,168,5.0,-999.0,-999,0.00,,,0.02,,2013-02-07 12:42:00,
2013-02-07 06:53:00,40.0,-99.9,-100.00,SSE,168,5.0,-999.0,-999,0.00,,,0.02,,2013-02-07 12:53:00,
2013-02-07 07:03:00,40.0,-99.9,-100.00,SSE,157,3.0,-999.0,-999,0.00,,,0.02,,2013-02-07 13:03:00,
2013-02-07 07:12:00,40.0,-99.9,-100.00,SSE,157,3.0,-999.0,-999,0.00,,,0.02,,2013-02-07 13:12:00,
2013-02-07 07:22:00,40.0,-99.9,-100.00,SSE,157,3.0,-999.0,-999,0.00,,,0.02,,2013-02-07 13:22:00,
2013-02-07 07:33:00,39.0,-99.9,-100.00,SSE,149,3.0,-999.0,-999,0.00,,,0.02,,2013-02-07 13:33:00,
2013-02-07 07:42:00,39.0,-99.9,-100.00,SSE,149,3.0,-999.0,-999,0.00,,,0.02,,2013-02-07 13:42:00,
2013-02-07 07:52:00,39.0,-99.9,-100.00,SSE,149,3.0,-999.0,-999,0.00,,,0.02,,2013-02-07 13:52:00,
2013-02-07 08:02:00,39.0,-99.9,-100.00,SSE,157,3.0,-999.0,-999,0.00,,,0.02,,2013-02-07 14:02:00,
2013-02-07 08:12:00,39.0,-99.9,-100.00,SSE,157,3.0,-999.0,-999,0.00,,,0.02,,2013-02-07 14:12:00,
2013-02-07 08:22:00,39.0,-99.9,-100.00,SSE,157,3.0,-999.0,-999,0.00,,,0.02,,2013-02-07 14:22:00,
2013-02-07 08:32:00,39.0,-99.9,-100.00,South,170,4.0,-999.0,-999,0.01,,,0.03,,2013-02-07 14:32:00,
2013-02-07 08:42:00,39.0,-99.9,-100.00,South,170,4.0,-999.0,-999,0.01,,,0.03,,2013-02-07 14:42:00,
2013-02-07 08:52:00,39.0,-99.9,-100.00,South,170,4.0,-999.0,-999,0.01,,,0.03,,2013-02-07 14:52:00,
2013-02-07 09:02:00,39.0,-99.9,-100.00,SSE,164,4.0,-999.0,-999,0.04,,,0.06,,2013-02-07 15:02:00,
2013-02-07 09:11:00,39.0,-99.9,-100.00,SSE,164,4.0,-999.0,-999,0.04,,,0.06,,2013-02-07 15:11:00,
2013-02-07 09:22:00,39.0,-99.9,-100.00,SSE,164,4.0,-999.0,-999,0.04,,,0.06,,2013-02-07 15:22:00,
2013-02-07 09:32:00,39.0,-99.9,-100.00,SSE,162,7.0,-999.0,-999,0.05,,,0.08,,2013-02-07 15:32:00,
2013-02-07 09:42:00,39.0,-99.9,-100.00,SSE,162,7.0,-999.0,-999,0.05,,,0.08,,2013-02-07 15:42:00,
2013-02-07 09:53:00,39.0,-99.9,-100.00,SSE,162,7.0,-999.0,-999,0.05,,,0.08,,2013-02-07 15:53:00,
2013-02-07 10:02:00,38.0,-99.9,-100.00,SSE,147,6.0,-999.0,-999,0.03,,,0.09,,2013-02-07 16:02:00,
2013-02-07 10:11:00,38.0,-99.9,-100.00,SSE,147,6.0,-999.0,-999,0.03,,,0.09,,2013-02-07 16:11:00,
2013-02-07 10:22:00,38.0,-99.9,-100.00,SSE,147,6.0,-999.0,-999,0.03,,,0.09,,2013-02-07 16:22:00,
2013-02-07 10:32:00,38.0,-99.9,-100.00,SSE,150,5.0,-999.0,-999,0.02,,,0.10,,2013-02-07 16:32:00,
2013-02-07 10:42:00,38.0,-99.9,-100.00,SSE,150,5.0,-999.0,-999,0.02,,,0.10,,2013-02-07 16:42:00,
2013-02-07 10:52:00,38.0,-99.9,-100.00,SSE,150,5.0,-999.0,-999,0.02,,,0.10,,2013-02-07 16:52:00,
2013-02-07 11:01:00,38.0,-99.9,-100.00,SSE,148,4.0,-999.0,-999,0.06,,,0.15,,2013-02-07 17:01:00,
2013-02-07 11:11:00,38.0,-99.9,-100.00,SSE,148,4.0,-999.0,-999,0.06,,,0.15,,2013-02-07 17:11:00,
2013-02-07 11:22:00,38.0,-99.9,-100.00,SSE,148,4.0,-999.0,-999,0.06,,,0.15,,2013-02-07 17:22:00,
2013-02-07 11:32:00,38.0,-99.9,-100.00,SSE,154,4.0,-999.0,-999,0.10,,,0.20,,2013-02-07 17:32:00,
2013-02-07 11:43:00,38.0,-99.9,-100.00,SSE,154,4.0,-999.0,-999,0.10,,,0.20,,2013-02-07 17:43:00,
2013-02-07 11:52:00,38.0,-99.9,-100.00,SSE,154,4.0,-999.0,-999,0.10,,,0.20,,2013-02-07 17:52:00,
2013-02-07 12:02:00,38.0,-99.9,-100.00,SSE,158,4.0,-999.0,-999,0.16,,,0.31,,2013-02-07 18:02:00,
2013-02-07 12:12:00,38.0,-99.9,-100.00,SSE,158,4.0,-999.0,-999,0.16,,,0.31,,2013-02-07 18:12:00,
2013-02-07 12:23:00,38.0,-99.9,-100.00,SSE,158,4.0,-999.0,-999,0.16,,,0.31,,2013-02-07 18:23:00,
2013-02-07 12:32:00,38.0,-99.9,-100.00,SE,142,4.0,-999.0,-999,0.14,,,0.34,,2013-02-07 18:32:00,
2013-02-07 12:42:00,38.0,-99.9,-100.00,SE,142,4.0,-999.0,-999,0.14,,,0.34,,2013-02-07 18:42:00,
2013-02-07 12:52:00,38.0,-99.9,-100.00,SE,142,4.0,-999.0,-999,0.14,,,0.34,,2013-02-07 18:52:00,
2013-02-07 13:02:00,38.0,-99.9,-100.00,NW,311,1.0,-999.0,-999,0.06,,,0.37,,2013-02-07 19:02:00,
2013-02-07 13:11:00,38.0,-99.9,-100.00,NW,311,1.0,-999.0,-999,0.06,,,0.37,,2013-02-07 19:11:00,
2013-02-07 13:22:00,38.0,-99.9,-100.00,NW,311,1.0,-999.0,-999,0.06,,,0.37,,2013-02-07 19:22:00,
2013-02-07 13:32:00,38.0,-99.9,-100.00,SE,130,3.0,-999.0,-999,0.07,,,0.41,,2013-02-07 19:32:00,
2013-02-07 13:42:00,38.0,-99.9,-100.00,SE,130,3.0,-999.0,-999,0.07,,,0.41,,2013-02-07 19:42:00,
2013-02-07 13:52:00,38.0,-99.9,-100.00,SE,130,3.0,-999.0,-999,0.07,,,0.41,,2013-02-07 19:52:00,
2013-02-07 14:01:00,39.0,-99.9,-100.00,SE,124,1.0,-999.0,-999,0.07,,,0.44,,2013-02-07 20:01:00,
2013-02-07 14:11:00,39.0,-99.9,-100.00,SE,124,1.0,-999.0,-999,0.07,,,0.44,,2013-02-07 20:11:00,
2013-02-07 14:22:00,39.0,-99.9,-100.00,SE,124,1.0,-999.0,-999,0.07,,,0.44,,2013-02-07 20:22:00,
2013-02-07 14:32:00,40.0,-99.9,-100.00,NNE,19,1.0,-999.0,-999,0.05,,,0.46,,2013-02-07 20:32:00,
2013-02-07 14:42:00,40.0,-99.9,-100.00,NNE,19,1.0,-999.0,-999,0.05,,,0.46,,2013-02-07 20:42:00,
2013-02-07 14:52:00,40.0,-99.9,-100.00,NNE,19,1.0,-999.0,-999,0.05,,,0.46,,2013-02-07 20:52:00,
2013-02-07 15:02:00,41.0,-99.9,-100.00,WNW,302,1.0,-999.0,-999,0.05,,,0.49,,2013-02-07 21:02:00,
2013-02-07 15:11:00,41.0,-99.9,-100.00,WNW,302,1.0,-999.0,-999,0.05,,,0.49,,2013-02-07 21:11:00,
2013-02-07 15:22:00,41.0,-99.9,-100.00,WNW,302,1.0,-999.0,-999,0.05,,,0.49,,2013-02-07 21:22:00,
2013-02-07 15:32:00,41.0,-99.9,-100.00,NW,321,4.0,-999.0,-999,0.04,,,0.50,,2013-02-07 21:32:00,
2013-02-07 15:42:00,41.0,-99.9,-100.00,NW,321,4.0,-999.0,-999,0.04,,,0.50,,2013-02-07 21:42:00,
2013-02-07 15:52:00,41.0,-99.9,-100.00,NW,321,4.0,-999.0,-999,0.04,,,0.50,,2013-02-07 21:52:00,
2013-02-07 16:02:00,40.0,-99.9,-100.00,NW,323,4.0,-999.0,-999,0.01,,,0.50,,2013-02-07 22:02:00,
2013-02-07 16:11:00,40.0,-99.9,-100.00,NW,323,4.0,-999.0,-999,0.01,,,0.50,,2013-02-07 22:11:00,
2013-02-07 16:22:00,40.0,-99.9,-100.00,NW,323,4.0,-999.0,-999,0.01,,,0.50,,2013-02-07 22:22:00,
2013-02-07 16:32:00,44.0,-99.9,-100.00,NW,316,8.0,-999.0,-999,0.00,,,0.50,,2013-02-07 22:32:00,
2013-02-07 16:42:00,44.0,-99.9,-100.00,NW,316,8.0,-999.0,-999,0.00,,,0.50,,2013-02-07 22:42:00,
2013-02-07 16:52:00,44.0,-99.9,-100.00,NW,316,8.0,-999.0,-999,0.00,,,0.50,,2013-02-07 22:52:00,
2013-02-07 17:02:00,42.0,-99.9,-100.00,NW,318,6.0,-999.0,-999,0.00,,,0.50,,2013-02-07 23:02:00,
2013-02-07 17:11:00,42.0,-99.9,-100.00,NW,318,6.0,-999.0,-999,0.00,,,0.50,,2013-02-07 23:11:00,
2013-02-07 17:22:00,42.0,-99.9,-100.00,NW,318,6.0,-999.0,-999,0.00,,,0.50,,2013-02-07 23:22:00,
2013-02-07 17:32:00,43.0,-99.9,-100.00,NW,320,7.0,-999.0,-999,0.00,,,0.50,,2013-02-07 23:32:00,
2013-02-07 17:42:00,43.0,-99.9,-100.00,NW,320,7.0,-999.0,-999,0.00,,,0.50,,2013-02-07 23:42:00,
2013-02-07 17:52:00,43.0,-99.9,-100.00,NW,320,7.0,-999.0,-999,0.00,,,0.50,,2013-02-07 23:52:00,
2013-02-07 18:02:00,42.0,-99.9,-100.00,NW,323,12.0,-999.0,-999,0.00,,,0.50,,2013-02-08 00:02:00,
2013-02-07 18:11:00,42.0,-99.9,-100.00,NW,323,12.0,-999.0,-999,0.00,,,0.50,,2013-02-08 00:11:00,
2013-02-07 18:22:00,42.0,-99.9,-100.00,NW,323,12.0,-999.0,-999,0.00,,,0.50,,2013-02-08 00:22:00,
2013-02-07 18:32:00,42.0,-99.9,-100.00,NW,317,13.0,-999.0,-999,0.00,,,0.50,,2013-02-08 00:32:00,
2013-02-07 18:42:00,42.0,-99.9,-100.00,NW,317,13.0,-999.0,-999,0.00,,,0.50,,2013-02-08 00:42:00,
2013-02-07 18:53:00,42.0,-99.9,-100.00,NW,317,13.0,-999.0,-999,0.00,,,0.50,,2013-02-08 00:53:00,
2013-02-07 19:02:00,41.0,-99.9,-100.00,NW,325,19.0,-999.0,-999,0.00,,,0.50,,2013-02-08 01:02:00,
2013-02-07 19:11:00,41.0,-99.9,-100.00,NW,325,19.0,-999.0,-999,0.00,,,0.50,,2013-02-08 01:11:00,
2013-02-07 19:22:00,41.0,-99.9,-100.00,NW,325,19.0,-999.0,-999,0.00,,,0.50,,2013-02-08 01:22:00,
2013-02-07 19:32:00,39.0,-99.9,-100.00,NW,313,19.0,-999.0,-999,0.00,,,0.50,,2013-02-08 01:32:00,
2013-02-07 19:42:00,39.0,-99.9,-100.00,NW,313,19.0,-999.0,-999,0.00,,,0.50,,2013-02-08 01:42:00,
2013-02-07 19:52:00,39.0,-99.9,-100.00,NW,313,19.0,-999.0,-999,0.00,,,0.50,,2013-02-08 01:52:00,
2013-02-07 20:01:00,38.0,-99.9,-100.00,NW,316,16.0,-999.0,-999,0.00,,,0.50,,2013-02-08 02:01:00,
2013-02-07 20:11:00,38.0,-99.9,-100.00,NW,316,16.0,-999.0,-999,0.00,,,0.50,,2013-02-08 02:11:00,
2013-02-07 20:22:00,38.0,-99.9,-100.00,NW,316,16.0,-999.0,-999,0.00,,,0.50,,2013-02-08 02:22:00,
2013-02-07 20:32:00,38.0,-99.9,-100.00,NW,318,14.0,-999.0,-999,0.00,,,0.50,,2013-02-08 02:32:00,
2013-02-07 20:42:00,38.0,-99.9,-100.00,NW,318,14.0,-999.0,-999,0.00,,,0.50,,2013-02-08 02:42:00,
2013-02-07 20:53:00,38.0,-99.9,-100.00,NW,318,14.0,-999.0,-999,0.00,,,0.50,,2013-02-08 02:53:00,
2013-02-07 21:02:00,37.0,-99.9,-100.00,NW,321,14.0,-999.0,-999,0.00,,,0.50,,2013-02-08 03:02:00,
2013-02-07 21:12:00,37.0,-99.9,-100.00,NW,321,14.0,-999.0,-999,0.00,,,0.50,,2013-02-08 03:12:00,
2013-02-07 21:23:00,37.0,-99.9,-100.00,NW,321,14.0,-999.0,-999,0.00,,,0.50,,2013-02-08 03:23:00,
2013-02-07 21:32:00,36.0,-99.9,-100.00,NW,319,11.0,-999.0,-999,0.00,,,0.50,,2013-02-08 03:32:00,
2013-02-07 21:42:00,36.0,-99.9,-100.00,NW,319,11.0,-999.0,-999,0.00,,,0.50,,2013-02-08 03:42:00,
2013-02-07 21:52:00,36.0,-99.9,-100.00,NW,319,11.0,-999.0,-999,0.00,,,0.50,,2013-02-08 03:52:00,
2013-02-07 22:02:00,36.0,-99.9,-100.00,NW,320,15.0,-999.0,-999,0.00,,,0.50,,2013-02-08 04:02:00,
2013-02-07 22:11:00,36.0,-99.9,-100.00,NW,320,15.0,-999.0,-999,0.00,,,0.50,,2013-02-08 04:11:00,
2013-02-07 22:22:00,36.0,-99.9,-100.00,NW,320,15.0,-999.0,-999,0.00,,,0.50,,2013-02-08 04:22:00,
2013-02-07 22:32:00,36.0,-99.9,-100.00,NW,316,14.0,-999.0,-999,0.00,,,0.50,,2013-02-08 04:32:00,
2013-02-07 22:42:00,36.0,-99.9,-100.00,NW,316,14.0,-999.0,-999,0.00,,,0.50,,2013-02-08 04:42:00,
2013-02-07 22:52:00,36.0,-99.9,-100.00,NW,316,14.0,-999.0,-999,0.00,,,0.50,,2013-02-08 04:52:00,
2013-02-07 23:02:00,35.0,-99.9,-100.00,NW,320,14.0,-999.0,-999,0.00,,,0.50,,2013-02-08 05:02:00,
2013-02-07 23:12:00,35.0,-99.9,-100.00,NW,320,14.0,-999.0,-999,0.00,,,0.50,,2013-02-08 05:12:00,
2013-02-07 23:22:00,35.0,-99.9,-100.00,NW,320,14.0,-999.0,-999,0.00,,,0.50,,2013-02-08 05:22:00,
2013-02-07 23:32:00,35.0,-99.9,-100.00,NW,314,16.0,-999.0,-999,0.00,,,0.50,,2013-02-08 05:32:00,
2013-02-07 23:42:00,35.0,-99.9,-100.00,NW,314,16.0,-999.0,-999,0.00,,,0.50,,2013-02-08 05:42:00,
2013-02-07 23:52:00,35.0,-99.9,-100.00,NW,314,16.0,-999.0,-999,0.00,,,0.50,,2013-02-08 05:52:00,